Dewpoint
54 55 55 55 56 53 47 42 38 33 26 29 33 33 33 32 28 16 15 12 18 19 16 11 9 13 18 11 10 7 9 10 11 9 9 10 9 4 6 10 12 12 9 11
54 54 55 55 55 48 42 38 35 35 34 32 29 27 28 25 19 18 17 22 18 15 15 19 13 13 11 10 8 8 10 8 11 12 6 5 4 6 7 8 14 14 10 10
53 53 54 54 55 49 45 36 32 29 29 31 33 31 28 26 18 17 23 27 16 10 11 15 27 18 9 10 8 13 14 11 13 16 13 5 5 4 8 5 9 11 12 10
53 53 53 53 54 50 45 39 34 32 25 26 29 33 34 31 30 17 14 13 17 13 20 13 10 13 8 9 9 16 12 13 10 10 9 13 13 9 6 7 11 11 9 10
53 53 53 53 54 51 45 38 34 32 32 29 29 31 31 31 30 27 22 22 21 13 26 26 22 11 9 14 12 15 20 13 13 12 12 12 13 15 14 13 11 9 12 15
52 52 52 52 54 52 42 37 36 37 33 29 28 30 32 32 34 28 29 26 25 23 23 23 25 26 25 25 17 16 17 15 11 9 9 9 7 7 10 11 5 12 11 9
50 51 51 51 53 52 44 39 37 35 31 30 28 29 30 29 31 28 22 26 25 23 27 26 24 22 21 21 18 21 16 15 13 8 9 2 1 0 2 3 1 -0 3 -1
51 50 50 51 51 52 40 36 39 36 25 18 22 21 22 22 21 19 18 20 23 28 24 19 15 13 13 12 10 14 16 16 10 7 4 6 0 0 -1 -4 -4 -5 -1 -2
51 51 51 50 51 44 29 24 29 31 25 10 7 13 18 19 17 17 18 22 24 25 20 17 12 11 9 4 1 4 14 14 12 7 3 0 -3 -1 -3 -6 -6 -6 -3 -4
44 46 46 49 50 40 26 21 24 19 7 8 9 8 11 15 17 15 17 18 19 22 16 13 10 9 8 7 4 -1 3 8 5 6 5 6 -1 0 -3 -6 -7 -2 -3 -4
38 37 37 36 35 31 22 19 22 14 8 9 10 10 7 10 12 14 15 16 16 16 13 12 10 8 6 6 4 4 5 3 2 1 0 -1 0 -1 -7 -7 -6 -4 -2 -3
38 38 37 35 33 29 21 16 21 16 11 10 15 14 15 13 13 12 16 14 13 13 11 10 10 7 6 3 2 -2 0 -2 -4 -3 -4 -5 -1 -3 -3 -6 -4 -4 -3 -4
35 35 34 33 31 27 22 19 21 15 10 8 7 7 11 9 15 19 14 14 14 12 12 11 8 4 3 2 -0 -2 -3 -6 -3 -4 -5 -5 -5 -3 -3 -4 -5 -7 -6 -5
30 29 29 27 26 25 21 20 23 17 11 3 5 1 1 5 7 9 13 14 10 8 5 2 1 -2 1 -1 -3 -4 -5 -5 -6 -6 -7 -10 -10 -9 -11 -10 -7 -6 -6 -6
23 20 18 17 15 13 10 10 11 15 12 4 5 3 -3 -1 5 4 5 5 3 1 -2 -3 -3 -2 -3 -5 -5 -5 -5 -10 -10 -9 -9 -10 -9 -10 -10 -9 -9 -8 -7 -6
22 22 23 23 21 17 11 5 13 10 12 4 -5 -3 -5 -4 3 2 1 1 2 0 -4 -5 -4 -4 -6 -10 -12 -12 -8 -7 -8 -9 -9 -10 -9 -9 -10 -9 -6 -5 -4 -4
15 13 12 11 12 11 11 11 12 13 14 1 -2 -5 -5 -6 0 0 1 -0 -1 -3 -4 -4 -4 -4 -8 -10 -19 -15 -15 -11 -11 -9 -8 -3 -3 -0 1 -1 -2 -2 -2 -2
13 15 14 13 11 8 6 9 7 3 -2 -2 -11 -11 -9 -5 -6 -8 -2 -5 -5 -4 -6 -9 -10 -8 -7 -17 -16 -15 -10 -6 -3 2 0 0 1 -2 -1 -0 1 2 2 1
10 7 5 -4 3 7 9 7 2 0 -7 -11 -8 -10 -18 -5 -7 -7 -8 -7 -11 -3 -9 -10 -6 -12 -16 -13 -4 3 6 7 7 8 7 6 5 5 6 6 5 5 4 5
6 -8 -17 -16 -12 8 1 -8 -10 -8 -4 -5 -7 -5 -10 -6 -7 -9 -13 -11 -12 -16 -10 -7 -11 -16 -15 -4 4 5 6 7 8 5 4 6 6 5 6 6 7 7 7 6
-14 -15 -16 -9 1 -8 -10 -12 -12 -10 -10 -5 -5 -5 -7 -4 -9 -9 -12 -14 -13 -24 -13 -14 -20 -22 0 8 4 10 12 11 11 11 11 11 9 8 8 7 7 8 8 8
0 -5 -3 -3 -5 -8 -13 -13 -12 -10 -10 -5 -6 -5 -4 -4 -6 -9 -13 -13 -16 -19 -11 -16 -18 -3 6 9 10 7 10 9 6 6 7 6 6 5 6 6 6 8 8 8
-3 -5 -8 -8 -8 -8 -10 -9 -9 -10 -7 -4 -4 -8 -5 -6 -6 -14 -13 -17 -15 -12 -16 -18 -5 6 11 6 8 5 3 5 6 6 8 4 2 4 5 6 8 8 7 8
-6 -5 -4 -6 -7 -7 -7 -7 -7 -6 -4 -3 -5 -8 -6 -5 -11 -12 -9 -12 -12 -7 -2 -0 5 9 5 8 2 4 4 5 6 7 1 2 4 5 6 0 -1 2 2 2
-5 -3 -2 -1 -3 -3 -4 -4 -4 -2 -1 -2 -5 -7 -8 -10 -7 -6 -5 -4 -6 -3 -1 4 9 6 7 3 4 4 5 6 2 1 1 3 5 4 -0 -3 -2 1 0 -1
-2 -3 -2 -2 -1 0 -2 -2 -3 0 -1 -3 -5 -8 -5 -5 -8 -2 -3 -3 -2 1 7 8 7 6 7 3 4 5 6 1 2 1 1 3 2 4 1 -2 -1 2 2 -2
0 0 -1 -1 -1 -1 -1 -0 0 2 -2 -4 -7 -2 -1 -5 -3 -0 2 2 6 8 7 8 6 8 6 4 6 3 3 1 1 1 1 3 0 2 0 -2 -1 2 -1 -2
Wind_Speed
25 24 23 19 21 27 19 10 11 3 5 10 5 20 9 8 10 7 11 5 11 14 14 9 10 13 11 11 12 9 9 4 9 11 1 1 1 7 13 14 9 6 1 17
23 23 24 20 15 34 10 8 4 4 6 13 12 6 7 10 11 11 10 11 11 9 12 8 13 8 1 9 11 10 11 5 6 5 0 2 6 6 5 2 3 19 9 14
22 23 23 21 15 33 10 7 7 2 4 1 8 14 10 12 6 6 9 8 7 8 11 11 7 9 3 6 6 5 10 9 13 26 4 6 7 10 13 16 15 11 34 17
22 21 22 20 17 31 12 8 8 8 8 13 14 11 9 15 13 9 10 5 20 14 10 5 13 9 5 3 6 4 6 13 15 11 7 7 11 14 20 26 30 20 19 29
19 19 19 17 14 34 14 11 7 3 4 3 24 16 15 22 9 13 10 20 12 16 16 16 9 8 8 6 5 9 3 7 2 13 8 13 24 22 22 24 26 28 26 31
22 21 20 19 18 21 7 4 1 6 8 7 10 10 22 25 20 10 3 17 11 12 13 6 6 4 3 5 9 12 9 9 5 12 3 3 21 15 22 13 5 16 24 12
21 22 20 19 17 24 10 7 7 6 9 15 12 4 7 4 6 7 4 3 6 4 16 14 10 11 9 5 5 1 8 11 9 4 5 13 4 1 1 5 6 5 4 2
20 20 18 19 14 18 5 2 6 9 5 2 4 7 5 8 10 6 6 6 4 8 4 3 2 2 1 1 5 4 2 6 5 6 10 12 2 2 2 3 4 2 4 3
17 20 21 21 17 21 11 8 4 6 11 5 5 3 3 2 2 3 5 5 8 4 2 3 6 6 2 2 1 3 1 2 7 5 6 10 1 2 3 2 10 2 4 2
21 22 19 9 11 19 14 9 10 13 11 10 6 3 3 4 3 5 5 2 3 4 3 2 4 4 0 3 3 1 2 1 11 11 9 5 4 5 3 3 2 5 5 7
25 25 25 27 20 11 12 12 10 11 8 16 16 8 9 7 7 3 1 3 4 2 3 2 2 1 1 1 1 1 3 2 3 1 4 11 8 6 3 2 2 5 9 13
25 23 23 24 26 20 13 11 12 17 15 9 5 16 17 7 5 3 5 3 4 3 4 3 3 2 2 1 2 0 3 2 2 5 4 1 11 6 5 4 8 10 10 17
31 33 35 37 37 34 27 17 9 13 15 15 12 10 16 21 11 3 2 3 2 4 2 3 3 4 1 1 1 2 0 1 3 7 2 6 11 12 14 12 17 17 18 20
33 34 35 37 38 35 25 12 6 9 11 9 7 11 13 16 19 16 6 7 7 5 5 5 4 3 3 1 1 1 0 1 2 8 16 17 9 11 16 20 18 19 20 21
26 28 33 37 38 37 30 25 18 10 8 8 7 2 14 19 19 23 21 14 7 6 5 7 4 2 2 2 1 3 7 3 4 12 17 19 24 16 12 17 21 22 23 23
30 28 22 12 6 3 2 7 14 17 6 10 6 2 13 16 16 19 21 12 10 6 5 4 3 0 2 2 1 6 12 9 14 20 6 10 24 22 20 25 27 27 23 22
27 31 37 42 40 28 14 5 11 8 3 7 7 4 8 13 7 6 8 10 7 6 4 4 2 3 3 2 3 3 6 12 17 19 13 21 15 25 18 20 25 23 22 24
13 16 21 21 15 14 16 19 20 10 12 10 7 4 5 14 9 7 10 8 5 10 4 2 4 2 2 4 7 12 15 19 17 19 15 21 28 24 27 24 23 25 24 22
9 6 9 9 13 9 7 9 14 18 12 8 8 6 5 12 8 6 6 6 6 2 4 3 2 2 1 3 10 18 20 18 25 26 22 24 25 27 25 23 21 23 24 22
6 8 7 8 6 14 8 8 10 16 13 10 7 3 6 7 7 11 7 6 5 3 4 4 2 3 8 12 12 18 22 22 24 25 28 29 29 27 28 27 25 25 26 27
6 7 5 3 11 6 9 9 12 11 9 9 7 6 7 6 6 6 6 3 5 3 5 7 4 2 7 12 18 19 19 20 21 20 23 23 24 26 26 26 24 23 23 23
7 8 4 5 13 11 11 9 7 11 5 11 8 7 4 5 2 4 6 3 3 3 8 4 3 4 12 28 25 27 26 24 23 22 22 23 23 23 24 24 25 23 23 23
5 8 8 10 13 26 10 12 7 7 9 7 9 8 6 6 6 3 4 5 4 5 4 4 4 13 24 27 25 25 25 23 23 23 21 23 24 24 23 24 23 24 23 22
12 10 14 10 10 7 2 3 5 5 5 12 9 5 4 4 6 3 5 3 2 8 8 6 19 23 27 21 24 24 25 25 25 22 24 23 23 24 20 22 22 21 23 23
9 10 10 10 1 4 5 5 5 5 5 8 6 3 3 4 4 5 5 8 7 4 11 19 21 27 24 25 24 25 25 23 23 23 23 24 22 20 21 24 21 19 20 22
8 12 7 1 1 6 4 4 6 3 6 2 0 3 4 8 5 8 4 7 5 18 17 22 23 24 20 24 23 22 21 23 21 22 22 21 22 19 20 22 21 21 18 21
7 7 4 3 0 3 5 4 7 6 5 7 3 7 5 4 6 7 1 6 16 21 21 19 20 20 20 22 19 21 20 21 20 22 23 21 21 19 20 25 24 23 20 19
Wind_Direction
270 265 256 248 245 171 163 160 227 30 196 185 219 213 193 203 200 188 215 228 226 214 202 214 227 227 217 172 159 178 191 186 243 226 154 155 158 215 187 218 222 229 299 268
273 271 263 246 229 160 145 180 152 343 303 206 222 259 224 218 192 204 186 217 223 215 205 226 223 217 359 165 173 176 178 213 265 269 19 23 223 200 194 126 118 233 224 254
269 269 266 255 216 184 143 145 185 107 214 267 226 215 229 223 213 197 181 193 183 203 220 226 230 227 181 179 192 179 166 189 216 250 240 134 201 208 208 211 235 235 236 252
275 270 271 260 210 189 174 195 213 186 197 235 219 196 204 210 216 211 193 218 216 203 226 227 233 198 158 173 195 154 188 243 227 254 232 224 235 228 207 214 225 227 262 238
275 277 275 266 230 195 210 192 162 218 223 178 206 203 216 217 209 175 213 221 216 200 217 213 215 172 190 194 179 170 179 240 161 272 254 243 263 247 229 224 229 241 253 259
278 270 267 269 257 202 183 159 86 177 190 176 184 216 218 221 201 209 179 217 192 204 225 124 91 73 92 180 184 180 183 187 167 260 87 347 274 253 224 226 213 231 246 258
281 278 271 263 260 212 175 162 148 175 231 196 204 233 204 264 219 191 79 56 163 116 109 95 73 65 70 70 65 108 178 169 182 237 113 261 289 341 50 234 245 217 240 189
279 276 275 266 249 215 104 15 164 158 180 45 71 38 101 87 62 76 88 52 1 134 69 91 115 27 15 18 20 350 2 172 193 220 212 306 288 195 180 183 249 200 132 136
297 282 279 271 239 131 102 62 352 92 136 28 319 339 47 80 76 82 71 45 32 59 100 137 207 223 189 245 345 21 10 279 209 170 226 256 143 164 191 148 264 186 163 303
41 50 40 354 181 137 105 60 10 89 97 11 353 57 19 347 30 89 92 45 56 21 110 153 190 212 138 235 204 155 90 277 238 236 253 269 150 146 148 200 282 188 224 270
63 65 66 70 77 76 83 62 17 101 96 46 47 31 40 357 19 70 67 126 22 71 129 149 132 145 144 48 54 88 220 235 231 180 262 276 159 131 210 184 242 262 256 258
63 67 74 84 87 83 71 73 56 77 88 120 93 62 37 14 322 333 31 78 54 50 95 73 98 107 83 85 287 23 251 249 260 227 264 251 205 239 224 207 276 278 264 264
69 69 72 75 75 78 103 112 89 78 99 65 47 4 358 16 8 297 91 70 72 65 41 92 94 104 2 178 225 311 219 162 265 331 300 267 242 252 259 250 256 262 259 262
70 74 78 80 79 79 75 74 51 78 99 88 43 32 36 1 25 35 32 104 78 85 54 78 84 95 358 122 110 251 245 185 288 272 289 302 285 254 270 268 259 261 257 256
67 73 80 85 88 88 83 71 53 56 105 118 142 341 8 11 28 40 41 57 67 43 63 51 73 75 99 47 110 259 190 215 297 284 286 280 287 281 294 286 281 278 279 280
63 60 57 50 52 65 58 72 40 25 63 107 86 120 12 4 13 33 34 35 50 70 78 91 85 161 80 110 209 246 217 226 246 280 303 274 290 296 283 285 283 276 274 272
67 68 68 67 67 68 58 51 312 349 53 88 105 58 15 349 12 26 14 29 52 66 91 64 81 49 54 118 226 253 255 266 277 272 296 299 281 295 296 281 282 281 278 274
45 58 64 62 62 71 45 33 29 60 87 57 78 35 34 7 7 10 6 10 37 30 93 65 41 3 45 257 304 317 311 310 301 295 267 270 288 294 290 287 288 288 283 279
24 43 63 50 34 42 338 11 44 50 64 86 62 29 348 352 18 7 360 4 54 338 54 33 346 353 356 315 320 316 309 302 300 300 294 287 284 286 290 290 289 285 289 285
41 41 34 37 1 318 355 8 25 29 27 43 66 335 346 349 349 8 4 21 43 39 17 324 45 280 262 280 282 284 294 295 299 306 316 315 308 307 305 300 296 291 289 289
39 43 59 299 328 32 38 43 40 0 43 16 358 23 338 10 5 353 32 360 4 27 349 1 342 327 320 315 308 314 315 307 310 314 315 322 325 327 326 325 321 317 314 311
71 106 77 31 26 33 58 30 15 38 32 346 351 327 331 322 31 3 3 6 3 356 327 353 331 288 312 334 352 338 340 354 347 344 338 336 335 330 324 322 320 318 316 314
49 51 50 19 349 38 38 7 9 8 350 7 339 322 349 339 24 26 0 2 354 305 9 338 268 309 346 351 349 358 348 345 340 334 334 336 333 334 330 328 333 334 334 333
52 46 31 45 30 44 8 282 276 283 282 317 327 301 345 336 349 352 357 331 338 359 2 349 333 355 350 359 350 348 343 340 335 346 339 336 335 334 345 348 338 340 340 339
62 48 51 48 276 262 261 264 285 269 282 330 329 300 341 349 11 11 329 2 353 10 336 325 351 349 346 355 347 345 342 346 346 342 340 336 338 341 349 343 339 341 342 340
65 48 77 82 17 358 332 294 301 300 313 317 12 325 22 31 0 11 23 348 310 321 329 341 340 340 351 345 339 342 341 344 338 340 338 335 344 336 338 338 338 334 338 341
56 45 33 69 175 314 314 315 320 323 341 10 353 40 352 289 357 1 227 327 319 337 333 334 336 335 342 336 335 342 344 339 334 339 338 337 342 333 340 345 340 337 340 336